RH
30 36 39 32 33 30 28 32 35 31 25 37 47 40 48 69 79 75 96 99 98 96 91 93 87 96 100 100 100 100 100 96 86 85 84 84 75 77 65 70 61 66 68 67
32 37 29 28 32 32 34 36 35 30 26 35 36 41 46 71 67 63 84 94 94 93 98 96 93 94 100 99 100 100 100 98 90 86 86 83 84 68 54 52 56 45 63 66
40 32 26 29 33 34 35 36 34 32 27 27 42 45 46 50 56 68 70 77 80 88 95 96 97 100 97 100 100 99 98 93 89 85 82 77 71 63 56 49 48 44 49 58
37 28 29 31 31 33 38 30 30 31 34 39 33 50 33 51 60 60 62 69 75 81 84 89 93 99 98 95 98 100 98 90 86 83 79 79 75 73 66 59 43 48 57 60
44 37 33 33 32 30 33 29 33 35 35 32 32 40 33 56 61 56 56 60 66 74 81 88 88 91 97 96 98 100 100 95 90 84 78 73 73 71 65 62 65 60 58 57
35 28 31 31 27 28 27 30 33 38 42 53 39 38 42 60 46 46 42 58 61 70 77 78 78 83 90 92 94 96 97 93 89 85 80 75 75 73 70 63 59 56 53 51
34 36 27 24 30 29 32 35 56 57 56 54 38 44 33 30 42 35 39 46 56 61 72 77 79 79 83 88 91 94 96 93 88 89 84 79 77 73 70 66 62 62 57 49
40 46 30 30 32 33 38 38 63 58 63 54 45 57 39 32 28 30 32 38 47 55 65 72 74 73 76 80 84 88 87 89 87 86 84 79 77 76 73 70 66 63 62 54
44 39 26 23 25 28 38 44 33 44 55 72 59 49 34 28 27 29 30 46 50 50 62 65 68 69 70 71 75 80 78 79 81 83 80 79 77 77 76 76 79 72 61 57
37 46 32 26 26 28 29 32 44 57 58 66 54 54 45 34 29 30 28 41 49 46 54 60 62 64 66 65 67 72 76 69 70 77 74 74 75 76 80 79 80 81 76 76
34 38 37 31 35 34 36 40 41 43 58 52 56 57 42 35 32 36 33 29 45 45 45 54 59 59 62 63 64 67 73 74 69 68 73 69 69 70 75 81 83 84 86 86
50 48 50 37 27 25 28 35 38 53 56 67 64 45 33 35 32 32 25 25 28 35 41 42 54 57 60 62 63 66 68 71 75 77 75 75 69 69 70 77 77 84 89 90
61 75 68 49 38 32 33 31 31 44 55 53 65 52 36 36 32 32 28 21 23 32 39 42 50 57 58 61 62 63 66 71 73 82 84 85 87 89 82 97 76 99 94 94
68 76 78 84 55 40 38 32 29 39 54 47 46 42 38 34 33 30 30 29 28 26 37 46 47 54 55 56 60 61 64 67 76 84 88 88 82 87 86 90 90 100 100 97
79 88 91 85 69 54 46 35 32 33 38 47 40 45 35 38 36 32 32 32 26 25 38 45 52 52 52 55 56 58 59 67 72 84 87 89 86 91 95 98 99 100 100 100
79 84 91 82 64 62 54 36 31 37 36 41 37 42 35 34 33 36 34 33 30 26 27 41 50 56 65 67 65 58 60 65 74 85 85 84 84 93 99 100 100 100 100 100
88 90 92 74 77 66 67 50 38 30 28 38 46 39 32 36 37 35 33 32 30 28 28 31 51 52 59 73 65 74 69 71 77 78 85 87 99 100 100 100 99 100 100 100
91 91 96 98 80 89 63 43 40 34 30 34 36 34 32 33 32 30 32 32 31 28 28 28 37 57 59 77 83 86 96 95 91 93 98 100 100 100 100 100 100 100 100 100
78 91 98 93 86 67 50 46 44 44 39 31 32 30 27 23 23 25 25 28 33 32 29 30 34 51 75 88 92 100 100 100 100 100 100 100 99 100 100 100 100 100 100 100
89 81 88 100 94 85 40 40 29 44 59 36 33 29 27 26 38 35 27 31 35 34 43 63 69 78 88 96 95 100 100 100 100 100 100 100 100 100 100 100 99 100 100 100
98 99 97 98 96 86 60 72 66 89 67 63 64 58 36 34 31 30 30 37 49 63 79 83 90 92 96 97 96 100 100 100 100 100 99 99 100 100 99 100 100 100 100 97
95 98 99 97 99 90 67 65 91 78 69 66 63 60 68 61 50 42 41 46 61 73 90 90 94 97 97 96 94 97 97 98 98 99 100 100 99 99 100 99 99 94 95 100
76 63 83 81 75 57 62 66 71 74 81 59 70 56 56 58 58 53 56 64 67 74 89 89 90 92 90 90 89 92 92 91 94 97 100 100 100 99 95 92 95 97 98 100
51 56 70 70 54 52 46 55 56 69 67 65 62 61 48 52 57 57 57 58 67 75 82 81 84 86 86 83 84 88 89 89 92 97 100 100 99 99 97 94 92 93 98 100
52 50 48 47 51 47 52 47 46 53 58 54 57 57 51 54 51 55 61 60 66 71 73 76 81 83 88 81 84 86 88 88 96 97 94 91 91 92 92 90 92 90 92 87
92 84 89 85 83 96 65 55 55 53 51 54 52 50 48 49 55 51 60 64 68 76 78 80 83 86 89 90 91 91 90 87 87 88 88 84 82 82 82 81 79 78 82 84
Wind_Speed
5 4 12 14 8 3 3 3 5 8 12 3 10 6 9 7 7 7 8 8 8 8 5 14 13 13 14 16 20 22 22 28 31 30 29 25 31 27 26 26 26 25 20 19
3 17 6 7 7 5 5 5 13 11 11 6 8 11 3 9 12 13 11 10 11 5 7 11 19 18 18 18 19 22 26 28 32 30 25 21 28 21 25 25 29 31 23 19
11 5 16 15 6 7 8 7 10 11 6 3 4 6 4 6 3 7 9 11 10 13 11 11 15 21 21 20 23 21 25 29 30 25 24 20 28 23 24 25 26 28 22 19
8 13 1 4 10 8 9 9 12 14 3 5 5 5 5 6 8 8 11 14 15 15 11 10 13 18 23 25 22 22 28 30 32 31 30 27 21 21 24 26 34 31 28 25
9 8 12 13 14 9 9 7 10 8 6 1 3 2 7 3 6 10 13 16 17 18 16 15 16 24 26 26 27 27 27 31 32 35 32 33 27 26 25 29 26 33 33 31
12 3 8 10 8 13 8 3 4 1 2 5 6 6 5 5 8 7 11 13 16 16 16 15 18 19 23 28 30 31 31 32 36 36 38 36 32 28 28 29 32 33 36 41
6 13 2 4 5 5 5 3 2 3 2 8 6 3 9 8 9 11 14 17 18 18 17 15 16 19 25 28 30 31 33 33 35 36 38 40 39 37 35 35 33 32 37 42
9 6 14 6 13 4 7 10 5 6 4 6 2 5 5 8 8 9 9 16 17 18 17 18 20 25 29 32 34 35 35 37 37 40 40 41 39 38 38 36 34 35 39 41
6 6 4 9 9 11 5 6 10 6 1 1 5 6 7 6 5 7 8 8 12 17 17 20 19 28 30 33 38 41 37 39 40 42 42 42 42 39 37 33 30 37 39 41
3 2 4 4 5 7 9 4 2 2 5 7 4 4 6 8 11 3 6 9 10 15 17 17 17 26 32 37 40 37 39 40 42 38 39 39 38 34 31 28 31 35 39 39
7 4 7 7 5 6 2 4 4 2 5 8 9 6 7 9 10 9 9 9 10 12 16 17 18 28 33 31 30 36 37 36 38 38 33 32 30 29 28 31 34 37 36 37
2 2 9 23 14 3 5 7 10 7 4 4 3 12 4 8 9 6 8 9 7 10 16 17 17 22 26 31 32 37 38 38 38 34 31 29 27 26 32 40 42 41 37 34
5 4 4 8 6 3 9 6 5 2 2 12 7 7 2 5 7 8 8 4 3 6 6 9 10 16 23 30 33 35 37 41 35 32 33 32 33 31 41 44 47 35 41 39
2 1 4 4 8 5 4 9 15 11 8 7 15 8 6 6 8 9 9 8 7 7 8 8 9 13 21 28 32 34 36 36 36 36 39 40 51 56 56 48 44 38 37 42
3 2 7 13 15 16 19 10 12 18 12 11 8 12 13 10 11 12 11 7 7 7 8 10 10 11 13 22 26 29 31 31 37 38 39 44 48 41 36 34 35 37 34 34
4 3 2 4 12 20 18 18 23 11 5 7 9 8 7 10 10 6 9 9 9 9 9 11 10 8 10 18 24 29 29 34 40 38 41 41 36 32 34 34 34 33 30 29
4 3 0 6 10 18 7 14 15 17 19 6 10 8 7 7 9 12 13 11 11 11 11 10 10 15 13 21 29 27 30 32 37 36 33 31 31 31 32 32 30 29 29 28
6 5 4 3 2 5 7 25 17 18 19 13 6 6 9 9 9 13 10 9 14 15 13 12 9 10 20 16 21 19 20 24 25 25 26 26 26 24 26 26 26 27 27 27
6 4 3 2 2 8 12 6 13 10 17 13 15 11 10 12 4 6 9 9 14 15 14 12 16 17 20 23 22 19 19 20 22 22 24 25 26 25 26 25 26 26 26 23
5 3 3 3 3 6 2 5 16 15 16 6 11 20 15 8 4 5 9 6 11 9 6 8 15 16 22 24 26 21 19 20 19 22 23 25 25 26 26 28 25 24 23 23
3 1 5 4 4 7 7 6 6 2 5 5 8 6 4 5 7 7 6 7 3 3 4 11 14 14 19 27 28 20 19 17 20 23 24 24 24 25 27 26 24 25 26 28
7 7 4 2 3 8 4 6 7 13 13 5 6 5 6 8 9 6 8 6 7 6 8 10 11 14 19 24 26 20 18 23 25 25 25 24 24 23 23 26 27 28 30 29
6 7 5 9 6 3 6 6 11 11 14 16 6 6 1 5 7 8 5 5 6 2 6 15 14 15 18 22 24 20 20 25 25 24 23 24 24 25 27 30 29 26 27 28
5 3 4 2 5 14 14 7 11 16 13 11 10 10 2 4 7 6 5 1 5 2 3 11 14 11 11 16 17 23 26 25 26 24 23 24 26 26 24 25 27 27 26 24
6 5 9 14 9 10 8 10 15 11 11 12 9 9 7 3 6 5 5 4 3 3 7 7 10 12 14 20 20 24 26 28 27 26 26 26 26 26 24 20 18 22 21 25
3 1 2 4 3 3 11 9 7 5 2 6 4 6 6 2 5 2 3 1 4 6 9 12 15 17 16 19 20 22 25 29 33 28 26 26 28 26 27 30 28 18 15 14
Wind_Direction
186 174 208 203 190 129 147 288 289 271 278 216 211 233 227 202 234 218 201 205 213 228 172 185 183 172 174 173 177 182 174 176 178 172 182 183 171 173 178 171 175 189 185 187
212 238 199 173 186 200 216 240 273 279 256 160 264 250 204 181 227 215 191 207 210 205 177 181 181 183 185 182 180 182 182 183 183 180 182 182 184 203 191 186 199 196 200 205
202 222 194 179 176 200 228 215 256 250 317 220 126 308 217 239 241 205 211 207 205 206 203 189 180 188 193 190 190 190 187 189 190 187 187 189 193 213 214 212 213 204 217 227
225 230 158 184 220 170 240 202 239 264 258 251 151 247 275 231 229 214 203 202 201 204 200 192 184 193 194 199 195 197 200 200 198 195 199 195 195 206 218 220 219 228 228 239
217 176 207 219 226 170 235 214 226 247 244 164 195 120 260 149 240 242 221 208 207 202 194 193 192 197 198 196 199 206 205 206 202 205 208 209 209 214 218 221 226 225 231 240
217 215 175 204 219 192 234 272 283 5 162 246 221 176 243 199 218 221 227 206 203 199 200 199 196 190 199 198 200 209 209 210 210 209 209 210 211 213 218 225 233 234 237 241
232 238 197 165 226 173 154 134 305 298 275 251 224 219 245 229 236 226 212 211 204 196 194 191 183 187 195 197 200 205 205 209 213 211 212 214 215 214 218 221 227 230 238 241
198 274 210 185 209 186 186 178 174 224 214 254 220 241 252 216 239 236 239 220 205 195 194 194 193 193 197 198 200 201 204 208 209 212 214 215 217 218 221 225 224 231 235 240
182 240 250 205 195 187 224 187 210 224 13 54 222 283 301 272 303 242 261 174 197 200 194 198 195 197 198 199 203 203 205 208 208 213 213 216 218 220 222 226 232 237 242 247
247 248 246 248 156 234 218 172 112 359 195 250 267 248 233 305 295 255 245 219 196 205 203 201 196 200 203 205 207 206 207 209 210 212 212 215 216 220 225 230 238 244 249 253
214 235 251 318 209 198 181 215 213 174 160 232 261 250 212 222 251 265 228 205 203 199 206 203 201 202 205 209 209 211 212 211 215 217 214 215 220 226 235 239 237 243 249 251
40 271 236 246 250 199 211 213 202 208 227 242 221 252 250 235 259 270 250 196 212 218 211 203 197 197 200 206 208 210 213 212 215 214 213 215 216 224 239 237 243 241 238 235
354 349 311 285 300 253 240 203 219 184 134 218 221 256 293 276 285 265 265 288 171 180 222 229 185 194 198 203 208 211 213 215 211 205 204 202 204 209 240 234 242 237 232 228
333 342 268 274 285 290 231 220 223 211 223 231 237 245 251 253 254 272 261 240 248 212 200 211 212 194 200 204 207 210 214 210 202 199 198 199 210 211 219 226 230 231 228 230
94 299 335 324 292 277 270 265 222 228 222 218 231 220 235 222 232 238 241 263 273 251 196 199 215 203 200 203 208 212 215 202 195 193 196 205 212 216 222 221 222 223 224 226
194 188 321 295 338 354 273 260 249 241 233 243 250 259 235 229 234 251 244 232 242 236 226 209 204 212 195 196 205 208 204 196 189 192 201 209 213 216 215 220 218 223 219 212
146 153 16 269 2 328 281 271 262 255 245 184 230 234 230 234 221 237 238 232 223 219 221 224 189 198 208 202 204 201 194 188 188 195 201 202 202 201 204 209 211 206 203 194
158 145 166 245 315 269 284 322 288 243 240 221 209 229 237 239 239 234 237 218 227 226 221 223 220 197 201 193 199 188 177 173 177 181 189 193 193 186 193 197 194 184 183 179
177 142 171 214 153 283 290 319 316 283 265 238 237 240 253 263 315 287 246 216 224 219 223 208 220 198 175 170 179 161 160 163 163 164 174 179 186 183 182 175 176 173 171 165
169 188 156 161 188 243 294 232 297 322 273 312 263 241 244 251 238 248 270 252 253 236 192 182 169 162 155 161 167 153 157 158 160 162 169 177 179 174 167 167 165 168 167 158
128 126 211 181 231 271 262 345 349 168 267 335 330 335 268 217 240 219 255 218 247 191 158 154 149 150 153 157 156 145 152 157 156 157 160 166 168 168 178 171 166 151 144 148
164 167 197 180 225 285 199 51 62 298 296 269 304 334 320 300 299 303 304 244 193 177 128 137 118 118 143 157 154 142 143 151 158 164 162 166 170 171 163 153 150 153 152 145
210 195 186 192 209 236 223 184 177 214 258 295 260 253 350 346 349 326 335 9 330 184 123 126 123 122 142 156 157 133 147 158 156 153 147 149 154 155 160 156 151 149 156 151
272 185 216 77 265 259 262 233 218 221 218 256 259 272 292 334 353 344 329 4 122 31 70 118 129 127 119 150 152 152 155 158 156 140 134 141 145 142 146 151 159 162 156 148
209 172 245 258 263 275 264 249 244 243 226 224 228 247 261 282 360 338 338 311 337 104 125 136 130 124 117 143 145 155 157 157 137 134 135 135 138 137 130 129 144 157 164 174
349 167 166 246 342 312 279 335 333 294 72 323 330 324 307 156 297 339 350 346 113 104 94 102 103 107 108 119 128 144 154 158 144 128 130 133 134 131 128 121 104 112 138 161